QPF
0.00 0.00 0.01 0.02 0.03 0.01 0.01 0.01 0.00 0.01 0.01 0.01 0.01 0.01 0.01 0.01 0.03 0.10 0.10 0.19 0.15 0.11 0.20 0.25 0.34 0.39 0.25 0.14 0.12 0.11 0.06 0.02 0.01 0.00 0.00 0.00 0.00 0.00 0.00 0.00 0.00 0.00 0.00
0.00 0.00 0.00 0.01 0.03 0.01 0.01 0.00 0.00 0.00 0.00 0.00 0.00 0.00 0.00 0.00 0.01 0.03 0.02 0.06 0.21 0.28 0.27 0.29 0.34 0.34 0.24 0.11 0.08 0.08 0.06 0.03 0.02 0.01 0.00 0.00 0.00 0.00 0.00 0.00 0.00 0.00 0.00
0.00 0.01 0.01 0.00 0.04 0.03 0.01 0.00 0.00 0.00 0.00 0.00 0.00 0.01 0.01 0.01 0.02 0.05 0.09 0.13 0.21 0.28 0.30 0.27 0.30 0.33 0.28 0.16 0.07 0.11 0.10 0.08 0.06 0.03 0.01 0.00 0.00 0.00 0.00 0.00 0.00 0.00 0.00
0.00 0.02 0.01 0.00 0.03 0.05 0.01 0.00 0.00 0.00 0.00 0.00 0.01 0.00 0.00 0.01 0.02 0.05 0.10 0.18 0.19 0.12 0.19 0.28 0.25 0.25 0.30 0.32 0.24 0.24 0.24 0.18 0.14 0.07 0.03 0.00 0.00 0.00 0.00 0.00 0.00 0.00 0.00
0.00 0.00 0.01 0.01 0.04 0.04 0.01 0.00 0.00 0.00 0.00 0.00 0.00 0.00 0.00 0.00 0.00 0.01 0.06 0.11 0.11 0.11 0.12 0.21 0.36 0.32 0.34 0.42 0.45 0.42 0.41 0.38 0.34 0.18 0.05 0.01 0.00 0.00 0.00 0.00 0.00 0.00 0.00
0.02 0.01 0.01 0.03 0.05 0.03 0.03 0.02 0.00 0.00 0.00 0.00 0.00 0.01 0.00 0.00 0.00 0.01 0.02 0.05 0.09 0.10 0.09 0.13 0.16 0.19 0.24 0.32 0.42 0.44 0.41 0.44 0.47 0.25 0.11 0.03 0.00 0.00 0.00 0.00 0.00 0.00 0.00
0.04 0.03 0.02 0.05 0.05 0.04 0.10 0.06 0.01 0.00 0.00 0.00 0.01 0.01 0.00 0.00 0.00 0.00 0.00 0.00 0.03 0.10 0.13 0.22 0.27 0.31 0.28 0.28 0.24 0.28 0.29 0.32 0.36 0.25 0.15 0.04 0.01 0.00 0.00 0.00 0.00 0.00 0.00
0.03 0.03 0.04 0.06 0.04 0.05 0.11 0.06 0.01 0.01 0.04 0.04 0.01 0.00 0.00 0.00 0.01 0.00 0.00 0.00 0.02 0.05 0.10 0.19 0.31 0.39 0.31 0.19 0.18 0.22 0.26 0.28 0.18 0.11 0.08 0.04 0.01 0.00 0.00 0.00 0.00 0.00 0.00
0.05 0.04 0.04 0.08 0.04 0.04 0.07 0.08 0.04 0.05 0.10 0.07 0.02 0.00 0.00 0.01 0.01 0.00 0.00 0.00 0.01 0.02 0.03 0.06 0.10 0.09 0.07 0.10 0.19 0.21 0.20 0.15 0.07 0.04 0.02 0.01 0.00 0.00 0.00 0.00 0.00 0.00 0.00
0.10 0.08 0.04 0.03 0.01 0.02 0.02 0.08 0.12 0.12 0.09 0.03 0.02 0.03 0.03 0.02 0.01 0.00 0.00 0.00 0.01 0.03 0.06 0.05 0.05 0.02 0.01 0.07 0.16 0.16 0.10 0.04 0.02 0.01 0.00 0.00 0.00 0.00 0.00 0.00 0.00 0.00 0.00
0.10 0.08 0.05 0.02 0.01 0.04 0.06 0.11 0.14 0.12 0.06 0.01 0.01 0.02 0.01 0.00 0.01 0.01 0.01 0.01 0.00 0.01 0.04 0.03 0.02 0.02 0.02 0.07 0.11 0.10 0.04 0.02 0.02 0.01 0.00 0.00 0.00 0.00 0.00 0.00 0.00 0.00 0.00
0.03 0.03 0.04 0.05 0.04 0.06 0.07 0.10 0.13 0.10 0.04 0.03 0.02 0.01 0.00 0.00 0.01 0.01 0.01 0.01 0.01 0.00 0.00 0.00 0.01 0.03 0.07 0.08 0.04 0.04 0.02 0.01 0.01 0.01 0.00 0.00 0.00 0.00 0.00 0.00 0.00 0.00 0.00
0.03 0.04 0.07 0.06 0.04 0.02 0.04 0.06 0.06 0.07 0.06 0.08 0.06 0.02 0.01 0.01 0.03 0.04 0.01 0.01 0.00 0.00 0.00 0.00 0.00 0.00 0.02 0.02 0.01 0.01 0.01 0.01 0.00 0.00 0.00 0.00 0.00 0.00 0.00 0.00 0.00 0.00 0.00
0.04 0.03 0.02 0.01 0.01 0.00 0.03 0.09 0.15 0.12 0.16 0.17 0.16 0.07 0.05 0.06 0.04 0.05 0.05 0.04 0.04 0.02 0.01 0.01 0.00 0.00 0.00 0.01 0.01 0.01 0.00 0.00 0.00 0.00 0.00 0.00 0.00 0.00 0.00 0.00 0.00 0.00 0.00
0.01 0.00 0.00 0.00 0.00 0.01 0.02 0.06 0.17 0.14 0.14 0.20 0.30 0.20 0.09 0.09 0.07 0.05 0.07 0.07 0.05 0.07 0.05 0.02 0.01 0.00 0.00 0.00 0.00 0.00 0.00 0.00 0.00 0.00 0.00 0.00 0.00 0.00 0.00 0.00 0.00 0.00 0.00
0.00 0.00 0.00 0.00 0.00 0.01 0.03 0.06 0.14 0.22 0.18 0.19 0.31 0.26 0.16 0.11 0.10 0.06 0.06 0.06 0.11 0.15 0.10 0.05 0.03 0.00 0.00 0.00 0.00 0.00 0.00 0.00 0.00 0.00 0.00 0.00 0.00 0.00 0.00 0.00 0.00 0.00 0.00
0.00 0.00 0.00 0.00 0.00 0.01 0.01 0.02 0.06 0.15 0.18 0.15 0.21 0.18 0.15 0.10 0.08 0.06 0.05 0.04 0.15 0.22 0.22 0.15 0.08 0.04 0.01 0.00 0.00 0.00 0.00 0.00 0.00 0.00 0.00 0.00 0.00 0.00 0.00 0.00 0.00 0.00 0.00
0.00 0.00 0.00 0.00 0.00 0.00 0.01 0.01 0.01 0.04 0.09 0.14 0.19 0.23 0.23 0.23 0.18 0.08 0.05 0.04 0.10 0.17 0.26 0.33 0.27 0.16 0.06 0.01 0.01 0.00 0.00 0.00 0.00 0.00 0.00 0.00 0.00 0.00 0.00 0.00 0.00 0.00 0.00
0.00 0.00 0.00 0.00 0.00 0.00 0.00 0.00 0.00 0.01 0.05 0.08 0.17 0.24 0.22 0.17 0.12 0.06 0.06 0.05 0.04 0.06 0.11 0.23 0.29 0.21 0.18 0.09 0.03 0.02 0.01 0.00 0.00 0.00 0.00 0.00 0.00 0.00 0.00 0.00 0.00 0.00 0.00
0.00 0.00 0.00 0.00 0.00 0.00 0.00 0.00 0.00 0.00 0.01 0.02 0.06 0.10 0.13 0.11 0.09 0.05 0.03 0.04 0.04 0.04 0.04 0.07 0.13 0.21 0.30 0.24 0.16 0.13 0.10 0.05 0.02 0.01 0.01 0.01 0.00 0.00 0.00 0.00 0.00 0.00 0.00
0.00 0.00 0.00 0.00 0.00 0.00 0.00 0.00 0.00 0.00 0.00 0.01 0.01 0.01 0.02 0.02 0.02 0.02 0.03 0.04 0.06 0.06 0.05 0.05 0.09 0.14 0.21 0.21 0.19 0.21 0.12 0.07 0.06 0.06 0.04 0.01 0.01 0.00 0.00 0.00 0.00 0.00 0.00
0.00 0.00 0.00 0.00 0.00 0.00 0.00 0.00 0.00 0.00 0.00 0.00 0.00 0.00 0.00 0.00 0.00 0.01 0.01 0.02 0.02 0.03 0.04 0.05 0.10 0.18 0.17 0.11 0.19 0.21 0.19 0.19 0.16 0.14 0.10 0.06 0.04 0.02 0.00 0.00 0.00 0.00 0.00
0.00 0.00 0.00 0.00 0.00 0.00 0.00 0.00 0.00 0.00 0.00 0.00 0.00 0.00 0.00 0.00 0.00 0.00 0.02 0.05 0.04 0.02 0.01 0.01 0.06 0.13 0.12 0.06 0.14 0.27 0.24 0.20 0.20 0.13 0.11 0.09 0.06 0.03 0.01 0.00 0.00 0.00 0.00
0.00 0.00 0.00 0.00 0.00 0.00 0.00 0.00 0.00 0.00 0.00 0.00 0.00 0.00 0.00 0.00 0.00 0.00 0.00 0.01 0.02 0.01 0.01 0.01 0.01 0.01 0.01 0.01 0.04 0.12 0.18 0.14 0.13 0.11 0.08 0.06 0.05 0.03 0.02 0.02 0.01 0.00 0.00
0.01 0.00 0.00 0.00 0.00 0.00 0.00 0.00 0.00 0.00 0.00 0.00 0.00 0.00 0.00 0.00 0.00 0.00 0.00 0.00 0.00 0.00 0.00 0.00 0.01 0.01 0.01 0.00 0.00 0.01 0.03 0.07 0.13 0.14 0.05 0.04 0.02 0.02 0.02 0.03 0.03 0.03 0.02
0.00 0.00 0.00 0.00 0.00 0.00 0.00 0.00 0.00 0.00 0.00 0.00 0.00 0.00 0.00 0.00 0.00 0.00 0.00 0.00 0.00 0.00 0.00 0.00 0.00 0.00 0.00 0.00 0.00 0.00 0.00 0.01 0.03 0.07 0.02 0.01 0.01 0.01 0.01 0.02 0.04 0.04 0.04
MSLP
1016.01 1016.04 1016.02 1016.00 1015.99 1015.99 1016.01 1016.03 1016.05 1016.04 1016.01 1015.95 1015.89 1015.83 1015.77 1015.73 1015.68 1015.64 1015.58 1015.50 1015.42 1015.36 1015.34 1015.40 1015.56 1015.82 1016.18 1016.61 1017.06 1017.49 1017.88 1018.19 1018.44 1018.63 1018.81 1018.99 1019.21 1019.46 1019.74 1020.04 1020.31 1020.54 1020.71
1015.77 1015.81 1015.83 1015.84 1015.87 1015.92 1015.97 1016.01 1016.04 1016.04 1016.01 1015.95 1015.88 1015.81 1015.73 1015.65 1015.56 1015.45 1015.32 1015.18 1015.03 1014.91 1014.85 1014.89 1015.03 1015.30 1015.67 1016.11 1016.58 1017.03 1017.45 1017.80 1018.09 1018.34 1018.58 1018.83 1019.10 1019.41 1019.74 1020.07 1020.36 1020.61 1020.79
1015.51 1015.57 1015.62 1015.69 1015.77 1015.87 1015.96 1016.04 1016.10 1016.12 1016.10 1016.05 1015.97 1015.88 1015.78 1015.66 1015.51 1015.34 1015.13 1014.91 1014.69 1014.50 1014.38 1014.37 1014.48 1014.72 1015.08 1015.52 1015.99 1016.47 1016.92 1017.31 1017.66 1017.98 1018.29 1018.61 1018.95 1019.32 1019.69 1020.06 1020.38 1020.64 1020.83
1015.25 1015.33 1015.42 1015.54 1015.68 1015.84 1015.99 1016.11 1016.20 1016.24 1016.23 1016.19 1016.12 1016.01 1015.89 1015.73 1015.54 1015.31 1015.03 1014.72 1014.42 1014.15 1013.95 1013.87 1013.93 1014.13 1014.45 1014.87 1015.34 1015.84 1016.31 1016.76 1017.17 1017.56 1017.95 1018.35 1018.76 1019.19 1019.61 1020.01 1020.35 1020.62 1020.82
1014.99 1015.08 1015.22 1015.39 1015.59 1015.81 1016.01 1016.18 1016.30 1016.36 1016.37 1016.34 1016.27 1016.17 1016.03 1015.86 1015.63 1015.35 1015.01 1014.63 1014.25 1013.90 1013.62 1013.46 1013.44 1013.58 1013.85 1014.24 1014.70 1015.20 1015.70 1016.20 1016.68 1017.14 1017.61 1018.08 1018.55 1019.03 1019.49 1019.91 1020.27 1020.55 1020.75
1014.75 1014.85 1015.02 1015.24 1015.49 1015.75 1016.00 1016.20 1016.34 1016.43 1016.45 1016.44 1016.38 1016.29 1016.17 1016.00 1015.76 1015.46 1015.09 1014.66 1014.22 1013.79 1013.44 1013.20 1013.10 1013.16 1013.37 1013.71 1014.15 1014.64 1015.17 1015.70 1016.23 1016.77 1017.30 1017.83 1018.36 1018.87 1019.35 1019.78 1020.14 1020.42 1020.62
1014.54 1014.64 1014.82 1015.07 1015.36 1015.65 1015.92 1016.14 1016.30 1016.40 1016.44 1016.45 1016.42 1016.36 1016.27 1016.13 1015.92 1015.63 1015.26 1014.82 1014.34 1013.87 1013.45 1013.14 1012.96 1012.94 1013.09 1013.37 1013.77 1014.25 1014.78 1015.34 1015.91 1016.49 1017.07 1017.64 1018.19 1018.72 1019.20 1019.62 1019.97 1020.23 1020.43
1014.36 1014.46 1014.65 1014.90 1015.20 1015.50 1015.78 1016.00 1016.16 1016.26 1016.32 1016.35 1016.37 1016.36 1016.33 1016.24 1016.09 1015.85 1015.51 1015.09 1014.62 1014.13 1013.67 1013.30 1013.06 1012.97 1013.04 1013.27 1013.62 1014.07 1014.59 1015.16 1015.75 1016.35 1016.94 1017.53 1018.08 1018.60 1019.05 1019.44 1019.76 1020.00 1020.17
1014.23 1014.32 1014.49 1014.75 1015.03 1015.32 1015.57 1015.77 1015.92 1016.03 1016.10 1016.16 1016.22 1016.27 1016.31 1016.31 1016.25 1016.08 1015.82 1015.45 1015.01 1014.53 1014.07 1013.67 1013.38 1013.24 1013.25 1013.41 1013.71 1014.12 1014.61 1015.16 1015.74 1016.34 1016.92 1017.49 1018.01 1018.49 1018.91 1019.25 1019.52 1019.72 1019.86
1014.16 1014.24 1014.40 1014.62 1014.87 1015.12 1015.33 1015.49 1015.62 1015.70 1015.78 1015.87 1015.98 1016.10 1016.22 1016.31 1016.35 1016.28 1016.11 1015.82 1015.44 1015.01 1014.57 1014.17 1013.86 1013.67 1013.63 1013.74 1013.98 1014.34 1014.79 1015.30 1015.85 1016.41 1016.96 1017.49 1017.97 1018.40 1018.76 1019.05 1019.26 1019.42 1019.53
1014.18 1014.23 1014.37 1014.55 1014.75 1014.93 1015.08 1015.20 1015.27 1015.34 1015.41 1015.52 1015.67 1015.85 1016.04 1016.22 1016.35 1016.39 1016.31 1016.12 1015.83 1015.46 1015.07 1014.69 1014.38 1014.18 1014.11 1014.17 1014.36 1014.66 1015.05 1015.51 1016.01 1016.51 1017.01 1017.48 1017.91 1018.27 1018.58 1018.82 1018.99 1019.11 1019.18
1014.28 1014.32 1014.42 1014.54 1014.67 1014.78 1014.86 1014.91 1014.93 1014.96 1015.02 1015.13 1015.30 1015.52 1015.77 1016.02 1016.23 1016.35 1016.37 1016.27 1016.07 1015.79 1015.46 1015.13 1014.85 1014.66 1014.57 1014.59 1014.73 1014.98 1015.31 1015.70 1016.13 1016.57 1017.01 1017.41 1017.78 1018.10 1018.35 1018.55 1018.69 1018.78 1018.83
1014.46 1014.49 1014.54 1014.61 1014.66 1014.69 1014.68 1014.65 1014.61 1014.60 1014.63 1014.73 1014.90 1015.13 1015.41 1015.70 1015.96 1016.15 1016.25 1016.24 1016.12 1015.93 1015.68 1015.42 1015.18 1015.01 1014.92 1014.93 1015.03 1015.22 1015.49 1015.81 1016.16 1016.53 1016.90 1017.24 1017.56 1017.83 1018.06 1018.23 1018.35 1018.43 1018.47
1014.71 1014.71 1014.73 1014.73 1014.70 1014.64 1014.55 1014.45 1014.35 1014.28 1014.27 1014.34 1014.49 1014.72 1015.00 1015.29 1015.58 1015.80 1015.95 1016.01 1015.97 1015.86 1015.70 1015.52 1015.34 1015.21 1015.14 1015.14 1015.21 1015.35 1015.54 1015.79 1016.07 1016.37 1016.66 1016.95 1017.22 1017.46 1017.67 1017.83 1017.96 1018.04 1018.08
1014.98 1014.97 1014.93 1014.87 1014.78 1014.64 1014.48 1014.31 1014.15 1014.04 1013.99 1014.01 1014.13 1014.32 1014.57 1014.85 1015.12 1015.35 1015.53 1015.63 1015.67 1015.63 1015.55 1015.45 1015.35 1015.26 1015.22 1015.21 1015.26 1015.35 1015.49 1015.66 1015.86 1016.08 1016.32 1016.55 1016.78 1016.99 1017.19 1017.35 1017.49 1017.58 1017.65
1015.25 1015.21 1015.14 1015.03 1014.88 1014.69 1014.47 1014.25 1014.05 1013.89 1013.80 1013.78 1013.85 1014.00 1014.19 1014.43 1014.67 1014.89 1015.07 1015.20 1015.28 1015.31 1015.31 1015.28 1015.25 1015.22 1015.20 1015.21 1015.23 1015.29 1015.36 1015.46 1015.58 1015.73 1015.89 1016.06 1016.25 1016.43 1016.61 1016.78 1016.93 1017.04 1017.12
1015.48 1015.42 1015.33 1015.18 1015.00 1014.77 1014.53 1014.28 1014.06 1013.87 1013.75 1013.70 1013.72 1013.81 1013.95 1014.12 1014.31 1014.50 1014.67 1014.81 1014.92 1015.00 1015.06 1015.10 1015.13 1015.14 1015.16 1015.17 1015.17 1015.19 1015.21 1015.24 1015.28 1015.34 1015.43 1015.54 1015.68 1015.82 1015.98 1016.13 1016.28 1016.41 1016.50
1015.65 1015.59 1015.49 1015.33 1015.14 1014.91 1014.67 1014.42 1014.19 1014.00 1013.86 1013.78 1013.76 1013.79 1013.87 1013.99 1014.12 1014.27 1014.41 1014.55 1014.67 1014.78 1014.88 1014.97 1015.04 1015.10 1015.13 1015.14 1015.14 1015.11 1015.08 1015.04 1015.01 1015.00 1015.01 1015.05 1015.12 1015.21 1015.32 1015.45 1015.58 1015.69 1015.79
1015.79 1015.73 1015.63 1015.49 1015.31 1015.11 1014.89 1014.67 1014.46 1014.28 1014.13 1014.04 1013.98 1013.97 1014.00 1014.06 1014.14 1014.24 1014.35 1014.46 1014.58 1014.71 1014.83 1014.94 1015.04 1015.11 1015.16 1015.17 1015.14 1015.09 1015.01 1014.91 1014.81 1014.73 1014.66 1014.63 1014.62 1014.65 1014.70 1014.77 1014.86 1014.95 1015.03
1015.90 1015.86 1015.78 1015.68 1015.54 1015.38 1015.21 1015.02 1014.85 1014.69 1014.56 1014.45 1014.38 1014.34 1014.32 1014.33 1014.36 1014.41 1014.48 1014.57 1014.67 1014.78 1014.89 1015.01 1015.11 1015.19 1015.23 1015.23 1015.19 1015.11 1014.99 1014.86 1014.71 1014.56 1014.43 1014.32 1014.24 1014.19 1014.17 1014.17 1014.20 1014.24 1014.29
1016.02 1016.00 1015.96 1015.90 1015.82 1015.72 1015.60 1015.47 1015.33 1015.20 1015.08 1014.98 1014.90 1014.83 1014.79 1014.76 1014.75 1014.75 1014.78 1014.83 1014.89 1014.97 1015.07 1015.16 1015.24 1015.31 1015.33 1015.32 1015.27 1015.17 1015.03 1014.87 1014.69 1014.50 1014.32 1014.15 1014.00 1013.88 1013.78 1013.70 1013.66 1013.63 1013.63
1016.17 1016.18 1016.19 1016.18 1016.16 1016.11 1016.04 1015.95 1015.85 1015.75 1015.65 1015.55 1015.47 1015.39 1015.33 1015.27 1015.23 1015.20 1015.19 1015.19 1015.21 1015.25 1015.30 1015.36 1015.41 1015.44 1015.45 1015.42 1015.35 1015.24 1015.10 1014.93 1014.74 1014.54 1014.33 1014.12 1013.93 1013.74 1013.57 1013.43 1013.30 1013.21 1013.15
1016.35 1016.40 1016.46 1016.50 1016.52 1016.52 1016.49 1016.43 1016.36 1016.27 1016.19 1016.10 1016.02 1015.94 1015.87 1015.80 1015.74 1015.69 1015.64 1015.60 1015.58 1015.57 1015.56 1015.57 1015.57 1015.57 1015.55 1015.50 1015.43 1015.33 1015.20 1015.04 1014.86 1014.66 1014.45 1014.23 1014.01 1013.79 1013.57 1013.36 1013.17 1013.01 1012.88
1016.57 1016.65 1016.74 1016.82 1016.87 1016.90 1016.89 1016.85 1016.78 1016.71 1016.63 1016.56 1016.49 1016.42 1016.36 1016.29 1016.23 1016.16 1016.09 1016.02 1015.95 1015.89 1015.83 1015.79 1015.74 1015.70 1015.65 1015.59 1015.52 1015.42 1015.31 1015.18 1015.03 1014.86 1014.67 1014.46 1014.24 1014.00 1013.75 1013.50 1013.26 1013.04 1012.86
1016.80 1016.90 1017.01 1017.10 1017.17 1017.19 1017.18 1017.14 1017.09 1017.01 1016.95 1016.89 1016.83 1016.79 1016.74 1016.70 1016.65 1016.58 1016.50 1016.41 1016.31 1016.21 1016.11 1016.01 1015.93 1015.85 1015.77 1015.70 1015.63 1015.55 1015.47 1015.37 1015.25 1015.12 1014.96 1014.78 1014.57 1014.33 1014.08 1013.81 1013.54 1013.27 1013.04
1017.00 1017.12 1017.23 1017.31 1017.37 1017.38 1017.36 1017.31 1017.24 1017.17 1017.12 1017.08 1017.05 1017.04 1017.03 1017.01 1016.98 1016.93 1016.85 1016.76 1016.64 1016.51 1016.38 1016.25 1016.14 1016.03 1015.94 1015.87 1015.80 1015.73 1015.67 1015.60 1015.51 1015.41 1015.29 1015.13 1014.95 1014.73 1014.48 1014.21 1013.93 1013.64 1013.37
Thickness
5773 5772 5771 5770 5769 5766 5763 5760 5760 5759 5757 5756 5756 5755 5755 5753 5750 5749 5749 5748 5747 5745 5743 5740 5736 5732 5729 5726 5722 5717 5714 5711 5710 5710 5708 5707 5706 5705 5703 5700 5699 5699 5699
5772 5770 5768 5767 5766 5764 5763 5759 5757 5757 5755 5754 5754 5754 5752 5750 5749 5749 5749 5748 5747 5747 5745 5743 5740 5735 5731 5727 5722 5717 5713 5711 5710 5709 5707 5705 5704 5702 5700 5697 5696 5695 5695
5769 5766 5765 5765 5764 5762 5760 5757 5754 5752 5751 5750 5750 5751 5750 5748 5747 5746 5746 5746 5746 5745 5745 5744 5742 5738 5733 5728 5723 5718 5714 5711 5709 5707 5705 5703 5701 5699 5696 5694 5692 5691 5691
5767 5764 5762 5762 5762 5759 5757 5754 5751 5748 5746 5744 5744 5745 5745 5745 5744 5744 5743 5743 5743 5743 5743 5743 5742 5739 5734 5729 5723 5718 5714 5711 5709 5706 5703 5700 5698 5696 5692 5690 5688 5687 5686
5763 5761 5760 5759 5758 5755 5752 5749 5747 5744 5741 5739 5739 5740 5740 5739 5739 5739 5740 5740 5740 5741 5741 5741 5740 5738 5734 5729 5723 5718 5714 5712 5709 5705 5701 5697 5694 5692 5689 5686 5684 5681 5680
5759 5757 5756 5755 5753 5750 5747 5744 5742 5741 5738 5735 5734 5734 5735 5735 5734 5734 5735 5735 5736 5738 5739 5739 5738 5737 5733 5728 5723 5717 5714 5712 5709 5704 5699 5694 5691 5688 5685 5682 5679 5676 5676
5754 5753 5752 5751 5749 5746 5744 5741 5739 5736 5733 5731 5727 5726 5729 5731 5730 5731 5731 5731 5732 5734 5735 5737 5737 5735 5732 5728 5722 5717 5712 5709 5707 5702 5697 5692 5688 5685 5681 5678 5675 5673 5674
5749 5749 5749 5748 5745 5742 5740 5738 5735 5731 5728 5726 5721 5717 5716 5718 5723 5726 5727 5727 5728 5730 5731 5732 5733 5732 5729 5726 5721 5715 5711 5707 5703 5699 5694 5690 5685 5681 5677 5674 5672 5672 5673
5745 5744 5744 5743 5740 5738 5736 5735 5733 5728 5722 5721 5720 5715 5709 5706 5712 5718 5721 5721 5721 5723 5725 5725 5726 5727 5725 5722 5718 5713 5708 5705 5699 5695 5690 5685 5680 5676 5673 5671 5671 5672 5673
5741 5739 5739 5737 5734 5732 5732 5731 5730 5727 5721 5717 5717 5716 5714 5711 5706 5706 5712 5715 5715 5716 5717 5717 5717 5718 5718 5716 5713 5709 5703 5699 5694 5689 5684 5679 5674 5671 5670 5670 5671 5673 5674
5735 5734 5732 5730 5728 5727 5727 5727 5726 5724 5721 5717 5713 5712 5710 5708 5706 5702 5702 5706 5708 5709 5709 5709 5708 5709 5710 5709 5706 5702 5696 5691 5687 5684 5679 5675 5672 5670 5671 5672 5673 5673 5673
5725 5724 5723 5722 5722 5722 5722 5722 5721 5720 5719 5716 5713 5710 5707 5703 5701 5701 5700 5701 5700 5701 5703 5703 5702 5701 5701 5700 5698 5694 5690 5686 5683 5680 5677 5674 5673 5672 5673 5674 5674 5674 5674
5714 5713 5713 5713 5713 5715 5715 5716 5717 5716 5715 5713 5711 5708 5707 5704 5702 5702 5700 5697 5695 5695 5697 5698 5698 5697 5696 5695 5693 5689 5685 5683 5680 5678 5677 5676 5676 5677 5678 5678 5677 5677 5675
5703 5703 5703 5703 5705 5707 5709 5711 5711 5712 5712 5710 5709 5707 5705 5702 5701 5702 5699 5694 5689 5689 5691 5693 5695 5695 5694 5691 5689 5687 5683 5680 5679 5677 5677 5678 5679 5681 5683 5683 5682 5680 5678
5694 5694 5695 5695 5697 5700 5702 5705 5705 5707 5708 5708 5707 5705 5703 5702 5700 5700 5699 5695 5688 5683 5684 5689 5690 5694 5693 5690 5687 5685 5683 5681 5680 5680 5681 5682 5684 5686 5687 5687 5685 5682 5680
5684 5685 5686 5687 5688 5690 5693 5696 5698 5700 5703 5704 5704 5702 5701 5700 5698 5697 5696 5694 5691 5686 5683 5685 5688 5691 5693 5691 5688 5685 5684 5683 5684 5685 5686 5687 5688 5689 5689 5688 5687 5685 5683
5674 5675 5675 5677 5678 5680 5682 5685 5689 5693 5697 5699 5699 5699 5698 5699 5696 5694 5693 5692 5690 5688 5682 5681 5684 5688 5689 5689 5689 5687 5685 5684 5685 5687 5688 5689 5690 5690 5690 5690 5689 5688 5685
5664 5663 5664 5665 5667 5669 5671 5675 5679 5684 5688 5691 5692 5693 5694 5695 5693 5691 5689 5688 5688 5687 5683 5678 5679 5683 5685 5687 5687 5686 5685 5686 5687 5689 5690 5692 5692 5692 5692 5692 5691 5690 5689
5654 5653 5653 5654 5657 5659 5661 5664 5669 5673 5677 5681 5683 5684 5685 5687 5686 5685 5684 5683 5683 5684 5682 5678 5677 5679 5681 5684 5684 5685 5685 5685 5687 5689 5691 5693 5694 5694 5694 5694 5694 5694 5694
5645 5644 5644 5644 5647 5650 5653 5655 5659 5662 5666 5669 5671 5673 5675 5677 5678 5678 5677 5677 5678 5677 5676 5674 5672 5674 5676 5680 5681 5680 5681 5684 5686 5691 5693 5695 5696 5697 5697 5697 5696 5697 5697
5636 5635 5635 5635 5638 5641 5643 5646 5649 5652 5655 5657 5660 5662 5664 5667 5670 5670 5670 5670 5672 5672 5671 5668 5667 5668 5670 5672 5674 5676 5677 5680 5685 5688 5691 5693 5695 5697 5698 5698 5699 5700 5700
5625 5625 5624 5624 5626 5630 5633 5637 5640 5643 5646 5648 5649 5651 5653 5657 5661 5662 5662 5664 5666 5667 5666 5665 5664 5664 5665 5666 5668 5670 5672 5672 5673 5682 5683 5686 5690 5692 5697 5698 5700 5701 5701
5617 5616 5615 5615 5617 5621 5625 5628 5630 5631 5634 5636 5638 5640 5642 5645 5648 5652 5653 5655 5657 5659 5662 5661 5659 5658 5660 5661 5662 5664 5666 5665 5667 5674 5675 5677 5683 5686 5692 5695 5698 5700 5700
5608 5607 5606 5608 5610 5613 5616 5618 5621 5621 5623 5626 5627 5629 5630 5633 5637 5640 5643 5645 5647 5650 5652 5653 5653 5654 5656 5658 5659 5658 5658 5660 5663 5665 5669 5668 5672 5677 5682 5686 5691 5695 5696
5598 5598 5599 5599 5601 5603 5607 5610 5612 5612 5613 5615 5616 5618 5621 5623 5626 5628 5631 5634 5637 5639 5643 5645 5646 5647 5650 5653 5655 5656 5655 5654 5653 5656 5659 5661 5663 5667 5673 5677 5682 5685 5687
5589 5590 5590 5591 5592 5594 5597 5600 5603 5604 5604 5606 5607 5608 5611 5613 5615 5617 5618 5621 5623 5626 5630 5634 5636 5637 5639 5642 5646 5648 5647 5645 5645 5647 5650 5652 5655 5658 5660 5667 5671 5675 5677